Time,TemperatureF,DewpointF,PressureIn,WindDirection,WindDirectionDegrees,WindSpeedMPH,WindSpeedGustMPH,Humidity,HourlyPrecipIn,Conditions,Clouds,dailyrainin,SoftwareType,DateUTC
2013-07-14 00:00:00,77.3,71.4,29.88,East,90,0.0,2.9,82,0.00,,,0.15,WUHU216HW,2013-07-14 04:00:00,
2013-07-14 00:01:00,77.3,71.4,29.88,ESE,113,5.1,5.1,82,0.00,,,0.00,WUHU216HW,2013-07-14 04:01:00,
2013-07-14 00:02:00,77.3,71.4,29.88,NE,45,6.4,6.4,82,0.00,,,0.00,WUHU216HW,2013-07-14 04:02:00,
2013-07-14 00:07:00,77.1,71.2,29.89,East,90,0.0,6.4,82,0.00,,,0.00,WUHU216HW,2013-07-14 04:07:00,
2013-07-14 00:12:00,77.1,71.2,29.89,ESE,113,0.0,2.9,82,0.00,,,0.00,WUHU216HW,2013-07-14 04:12:00,
2013-07-14 00:18:00,77.1,71.2,29.89,ENE,68,1.3,4.0,82,0.00,,,0.00,WUHU216HW,2013-07-14 04:18:00,
2013-07-14 00:23:00,77.1,71.2,29.89,East,90,0.0,4.0,82,0.00,,,0.00,WUHU216HW,2013-07-14 04:23:00,
2013-07-14 00:28:00,77.0,71.0,29.89,ESE,113,1.7,1.7,82,0.00,,,0.00,WUHU216HW,2013-07-14 04:28:00,
2013-07-14 00:33:00,76.8,70.5,29.89,SSE,158,0.0,1.7,81,0.00,,,0.00,WUHU216HW,2013-07-14 04:33:00,
2013-07-14 00:38:00,76.8,70.5,29.89,SW,225,0.0,0.0,81,0.00,,,0.00,WUHU216HW,2013-07-14 04:38:00,
2013-07-14 00:43:00,76.6,70.3,29.89,East,90,0.0,0.0,81,0.00,,,0.00,WUHU216HW,2013-07-14 04:43:00,
2013-07-14 00:48:00,76.6,70.3,29.90,South,180,0.0,0.0,81,0.00,,,0.00,WUHU216HW,2013-07-14 04:48:00,
2013-07-14 00:53:00,76.4,70.1,29.90,South,180,0.0,0.0,81,0.00,,,0.00,WUHU216HW,2013-07-14 04:53:00,
2013-07-14 00:58:00,76.2,70.0,29.89,ENE,68,0.0,0.0,81,0.00,,,0.00,WUHU216HW,2013-07-14 04:58:00,
2013-07-14 01:03:00,76.2,70.3,29.89,South,180,0.0,0.0,82,0.00,,,0.00,WUHU216HW,2013-07-14 05:03:00,
2013-07-14 01:08:00,76.1,70.2,29.89,NNW,338,0.0,0.0,82,0.00,,,0.00,WUHU216HW,2013-07-14 05:08:00,
2013-07-14 01:13:00,75.9,70.0,29.89,SSE,158,0.0,1.5,82,0.00,,,0.00,WUHU216HW,2013-07-14 05:13:00,
2013-07-14 01:18:00,75.9,70.0,29.89,SW,225,0.0,7.3,82,0.00,,,0.00,WUHU216HW,2013-07-14 05:18:00,
2013-07-14 01:23:00,75.9,70.0,29.89,ESE,113,0.0,7.3,82,0.00,,,0.00,WUHU216HW,2013-07-14 05:23:00,
2013-07-14 01:28:00,75.9,70.4,29.89,ESE,113,3.1,6.0,83,0.00,,,0.00,WUHU216HW,2013-07-14 05:28:00,
2013-07-14 01:33:00,75.9,70.4,29.89,East,90,0.0,6.0,83,0.00,,,0.00,WUHU216HW,2013-07-14 05:33:00,
2013-07-14 01:38:00,76.1,70.9,29.88,SE,135,0.0,6.0,84,0.00,,,0.00,WUHU216HW,2013-07-14 05:38:00,
2013-07-14 01:43:00,76.1,70.9,29.88,ENE,68,3.8,6.0,84,0.00,,,0.00,WUHU216HW,2013-07-14 05:43:00,
2013-07-14 01:49:00,76.1,70.9,29.88,SE,135,0.0,3.8,84,0.00,,,0.00,WUHU216HW,2013-07-14 05:49:00,
2013-07-14 01:54:00,76.2,71.4,29.88,East,90,0.0,5.1,85,0.00,,,0.00,WUHU216HW,2013-07-14 05:54:00,
2013-07-14 01:59:00,76.2,71.4,29.88,East,90,0.0,5.1,85,0.00,,,0.00,WUHU216HW,2013-07-14 05:59:00,
2013-07-14 02:04:00,76.2,71.4,29.88,ESE,113,0.0,0.0,85,0.00,,,0.00,WUHU216HW,2013-07-14 06:04:00,
2013-07-14 02:09:00,76.4,71.6,29.88,SSE,158,0.0,0.0,85,0.00,,,0.00,WUHU216HW,2013-07-14 06:09:00,
2013-07-14 02:14:00,76.6,71.7,29.88,ENE,68,0.0,4.2,85,0.00,,,0.00,WUHU216HW,2013-07-14 06:14:00,
2013-07-14 02:19:00,76.4,71.9,29.89,ENE,68,7.1,7.1,86,0.02,,,0.02,WUHU216HW,2013-07-14 06:19:00,
2013-07-14 02:24:00,76.1,71.6,29.89,ENE,68,0.0,7.1,86,0.04,,,0.04,WUHU216HW,2013-07-14 06:24:00,
2013-07-14 02:29:00,75.9,71.7,29.89,SE,135,0.0,2.9,87,0.04,,,0.04,WUHU216HW,2013-07-14 06:29:00,
2013-07-14 02:34:00,75.5,71.7,29.89,SE,135,0.0,2.9,88,0.04,,,0.04,WUHU216HW,2013-07-14 06:34:00,
2013-07-14 02:39:00,75.3,71.6,29.89,East,90,0.0,2.9,88,0.04,,,0.04,WUHU216HW,2013-07-14 06:39:00,
2013-07-14 02:44:00,75.3,71.6,29.89,ESE,113,0.0,0.0,88,0.04,,,0.04,WUHU216HW,2013-07-14 06:44:00,
2013-07-14 02:49:00,75.0,71.2,29.89,North,0,0.0,0.0,88,0.04,,,0.04,WUHU216HW,2013-07-14 06:49:00,
2013-07-14 02:54:00,75.0,71.6,29.89,SW,225,0.0,0.0,89,0.04,,,0.04,WUHU216HW,2013-07-14 06:54:00,
2013-07-14 02:59:00,75.0,71.6,29.89,SW,225,0.0,0.0,89,0.04,,,0.04,WUHU216HW,2013-07-14 06:59:00,
2013-07-14 03:04:00,75.0,71.6,29.90,SSE,158,0.0,0.4,89,0.04,,,0.04,WUHU216HW,2013-07-14 07:04:00,
2013-07-14 03:09:00,75.0,71.6,29.90,SE,135,0.0,0.4,89,0.04,,,0.04,WUHU216HW,2013-07-14 07:09:00,
2013-07-14 03:14:00,75.0,71.6,29.90,SE,135,0.0,0.0,89,0.04,,,0.04,WUHU216HW,2013-07-14 07:14:00,
2013-07-14 03:19:00,75.0,71.6,29.90,ENE,68,4.6,4.6,89,0.00,,,0.04,WUHU216HW,2013-07-14 07:19:00,
2013-07-14 03:24:00,75.0,71.6,29.90,East,90,1.7,4.6,89,0.00,,,0.04,WUHU216HW,2013-07-14 07:24:00,
2013-07-14 03:29:00,75.0,71.6,29.90,ENE,68,0.0,3.1,89,0.00,,,0.04,WUHU216HW,2013-07-14 07:29:00,
2013-07-14 03:34:00,74.8,71.4,29.90,ESE,113,0.0,0.0,89,0.00,,,0.04,WUHU216HW,2013-07-14 07:34:00,
2013-07-14 03:39:00,74.8,71.7,29.90,SE,135,0.0,0.0,90,0.00,,,0.04,WUHU216HW,2013-07-14 07:39:00,
2013-07-14 03:44:00,74.8,71.4,29.90,SE,135,0.0,0.0,89,0.00,,,0.04,WUHU216HW,2013-07-14 07:44:00,
2013-07-14 03:50:00,74.8,71.4,29.90,ESE,113,0.0,0.0,89,0.00,,,0.04,WUHU216HW,2013-07-14 07:50:00,
2013-07-14 03:55:00,74.4,71.0,29.90,ESE,113,0.0,0.0,89,0.00,,,0.04,WUHU216HW,2013-07-14 07:55:00,
2013-07-14 04:00:00,74.4,71.0,29.90,ESE,113,0.0,0.0,89,0.00,,,0.04,WUHU216HW,2013-07-14 08:00:00,
2013-07-14 04:05:00,74.4,71.0,29.90,ESE,113,0.0,0.0,89,0.00,,,0.04,WUHU216HW,2013-07-14 08:05:00,
2013-07-14 04:10:00,74.3,70.8,29.90,East,90,0.0,0.0,89,0.00,,,0.04,WUHU216HW,2013-07-14 08:10:00,
2013-07-14 04:15:00,74.1,70.7,29.90,ESE,113,0.0,0.0,89,0.00,,,0.04,WUHU216HW,2013-07-14 08:15:00,
2013-07-14 04:20:00,74.1,70.7,29.90,East,90,0.0,0.0,89,0.00,,,0.04,WUHU216HW,2013-07-14 08:20:00,
2013-07-14 04:25:00,74.1,70.7,29.90,ESE,113,0.0,1.7,89,0.00,,,0.04,WUHU216HW,2013-07-14 08:25:00,
2013-07-14 04:30:00,73.9,70.5,29.90,ESE,113,0.0,1.7,89,0.00,,,0.04,WUHU216HW,2013-07-14 08:30:00,
2013-07-14 04:35:00,73.9,70.5,29.90,ENE,68,0.0,0.0,89,0.00,,,0.04,WUHU216HW,2013-07-14 08:35:00,
2013-07-14 04:40:00,73.7,70.3,29.90,East,90,0.0,0.0,89,0.00,,,0.04,WUHU216HW,2013-07-14 08:40:00,
2013-07-14 04:45:00,73.5,70.5,29.90,East,90,0.0,0.0,90,0.00,,,0.04,WUHU216HW,2013-07-14 08:45:00,
2013-07-14 04:50:00,73.5,70.5,29.91,East,90,0.0,0.0,90,0.00,,,0.04,WUHU216HW,2013-07-14 08:50:00,
2013-07-14 04:55:00,73.4,70.3,29.91,East,90,0.0,0.0,90,0.00,,,0.04,WUHU216HW,2013-07-14 08:55:00,
2013-07-14 05:00:00,73.2,70.1,29.91,East,90,0.0,0.0,90,0.00,,,0.04,WUHU216HW,2013-07-14 09:00:00,
2013-07-14 05:05:00,73.2,70.1,29.91,East,90,0.0,0.0,90,0.00,,,0.04,WUHU216HW,2013-07-14 09:05:00,
2013-07-14 05:10:00,73.0,69.9,29.91,East,90,0.0,0.0,90,0.00,,,0.04,WUHU216HW,2013-07-14 09:10:00,
2013-07-14 05:15:00,72.8,69.8,29.91,East,90,0.0,0.0,90,0.00,,,0.04,WUHU216HW,2013-07-14 09:15:00,
2013-07-14 05:20:00,72.6,69.6,29.92,East,90,0.0,0.0,90,0.00,,,0.04,WUHU216HW,2013-07-14 09:20:00,
2013-07-14 05:25:00,72.6,69.6,29.92,East,90,0.0,0.0,90,0.00,,,0.04,WUHU216HW,2013-07-14 09:25:00,
2013-07-14 05:30:00,72.5,69.4,29.92,East,90,0.0,0.0,90,0.00,,,0.04,WUHU216HW,2013-07-14 09:30:00,
2013-07-14 05:35:00,72.5,69.4,29.91,East,90,0.0,0.0,90,0.00,,,0.04,WUHU216HW,2013-07-14 09:35:00,
2013-07-14 05:40:00,72.3,69.5,29.92,East,90,0.0,0.0,91,0.00,,,0.04,WUHU216HW,2013-07-14 09:40:00,
2013-07-14 05:45:00,72.3,69.5,29.92,East,90,0.0,0.0,91,0.00,,,0.04,WUHU216HW,2013-07-14 09:45:00,
2013-07-14 05:50:00,72.3,69.5,29.92,East,90,0.0,0.0,91,0.00,,,0.04,WUHU216HW,2013-07-14 09:50:00,
2013-07-14 05:55:00,72.3,69.5,29.92,East,90,0.0,0.0,91,0.00,,,0.04,WUHU216HW,2013-07-14 09:55:00,
2013-07-14 06:00:00,72.1,69.3,29.91,East,90,0.0,0.0,91,0.00,,,0.04,WUHU216HW,2013-07-14 10:00:00,
2013-07-14 06:05:00,72.1,69.3,29.92,East,90,0.0,0.0,91,0.00,,,0.04,WUHU216HW,2013-07-14 10:05:00,
2013-07-14 06:10:00,72.1,69.3,29.92,East,90,0.0,0.0,91,0.00,,,0.04,WUHU216HW,2013-07-14 10:10:00,
2013-07-14 06:15:00,72.1,69.3,29.92,East,90,0.0,0.0,91,0.00,,,0.04,WUHU216HW,2013-07-14 10:15:00,
2013-07-14 06:21:00,72.1,69.3,29.92,ESE,113,0.0,0.0,91,0.00,,,0.04,WUHU216HW,2013-07-14 10:21:00,
2013-07-14 06:26:00,72.3,69.5,29.91,East,90,0.0,1.7,91,0.00,,,0.04,WUHU216HW,2013-07-14 10:26:00,
2013-07-14 06:31:00,72.5,69.7,29.91,WSW,248,0.0,1.7,91,0.00,,,0.04,WUHU216HW,2013-07-14 10:31:00,
2013-07-14 06:36:00,72.5,69.7,29.92,WSW,248,0.0,0.0,91,0.00,,,0.04,WUHU216HW,2013-07-14 10:36:00,
2013-07-14 06:41:00,72.5,69.7,29.92,WSW,248,0.0,0.0,91,0.00,,,0.04,WUHU216HW,2013-07-14 10:41:00,
2013-07-14 06:46:00,72.5,69.7,29.92,WSW,248,0.0,0.0,91,0.00,,,0.04,WUHU216HW,2013-07-14 10:46:00,
2013-07-14 06:51:00,72.5,69.7,29.92,WSW,248,0.0,0.0,91,0.00,,,0.04,WUHU216HW,2013-07-14 10:51:00,
2013-07-14 06:56:00,72.6,69.9,29.92,WSW,248,0.0,0.0,91,0.00,,,0.04,WUHU216HW,2013-07-14 10:56:00,
2013-07-14 07:01:00,72.6,69.9,29.92,WSW,248,0.0,0.0,91,0.00,,,0.04,WUHU216HW,2013-07-14 11:01:00,
2013-07-14 07:06:00,72.8,70.1,29.93,SW,225,0.0,0.0,91,0.00,,,0.04,WUHU216HW,2013-07-14 11:06:00,
2013-07-14 07:11:00,73.0,70.2,29.93,SSW,203,0.0,0.0,91,0.00,,,0.04,WUHU216HW,2013-07-14 11:11:00,
2013-07-14 07:16:00,73.2,70.4,29.92,SW,225,0.0,0.0,91,0.00,,,0.04,WUHU216HW,2013-07-14 11:16:00,
2013-07-14 07:21:00,73.5,71.1,29.93,SW,225,0.0,0.0,92,0.00,,,0.04,WUHU216HW,2013-07-14 11:21:00,
2013-07-14 07:26:00,73.9,71.4,29.93,East,90,0.0,0.0,92,0.00,,,0.04,WUHU216HW,2013-07-14 11:26:00,
2013-07-14 07:31:00,74.1,71.6,29.93,ENE,68,0.0,0.0,92,0.00,,,0.04,WUHU216HW,2013-07-14 11:31:00,
2013-07-14 07:36:00,74.4,71.7,29.93,ESE,113,1.7,1.7,91,0.00,,,0.04,WUHU216HW,2013-07-14 11:36:00,
2013-07-14 07:41:00,74.8,72.0,29.93,South,180,0.0,1.7,91,0.00,,,0.04,WUHU216HW,2013-07-14 11:41:00,
2013-07-14 07:46:00,75.0,72.2,29.93,SE,135,0.0,1.1,91,0.00,,,0.04,WUHU216HW,2013-07-14 11:46:00,
2013-07-14 07:51:00,75.2,72.3,29.93,East,90,0.0,1.5,90,0.00,,,0.04,WUHU216HW,2013-07-14 11:51:00,
2013-07-14 07:56:00,75.5,72.5,29.93,SE,135,0.0,2.4,90,0.00,,,0.04,WUHU216HW,2013-07-14 11:56:00,
2013-07-14 08:01:00,75.5,72.5,29.94,ESE,113,0.0,2.4,90,0.00,,,0.04,WUHU216HW,2013-07-14 12:01:00,
2013-07-14 08:06:00,75.7,72.3,29.94,SW,225,0.0,0.0,89,0.00,,,0.04,WUHU216HW,2013-07-14 12:06:00,
2013-07-14 08:11:00,76.1,72.1,29.94,ESE,113,0.0,2.0,88,0.00,,,0.04,WUHU216HW,2013-07-14 12:11:00,
2013-07-14 08:16:00,76.2,72.5,29.94,SE,135,0.0,2.0,88,0.00,,,0.04,WUHU216HW,2013-07-14 12:16:00,
2013-07-14 08:21:00,76.6,72.8,29.95,WSW,248,0.0,2.2,88,0.00,,,0.04,WUHU216HW,2013-07-14 12:21:00,
2013-07-14 08:26:00,76.6,72.5,29.94,WSW,248,0.0,2.2,87,0.00,,,0.04,WUHU216HW,2013-07-14 12:26:00,
2013-07-14 08:32:00,76.8,72.6,29.94,SSE,158,0.0,0.0,87,0.02,,,0.06,WUHU216HW,2013-07-14 12:32:00,
2013-07-14 08:37:00,76.8,72.6,29.94,WSW,248,0.0,0.0,87,0.02,,,0.06,WUHU216HW,2013-07-14 12:37:00,
2013-07-14 08:42:00,77.1,73.0,29.95,SSE,158,0.0,0.0,87,0.02,,,0.06,WUHU216HW,2013-07-14 12:42:00,
2013-07-14 08:47:00,77.5,73.0,29.95,SW,225,0.0,0.0,86,0.02,,,0.06,WUHU216HW,2013-07-14 12:47:00,
2013-07-14 08:52:00,77.7,72.8,29.95,East,90,0.0,3.1,85,0.02,,,0.06,WUHU216HW,2013-07-14 12:52:00,
2013-07-14 08:57:00,78.0,73.2,29.95,WSW,248,0.0,3.1,85,0.02,,,0.06,WUHU216HW,2013-07-14 12:57:00,
2013-07-14 09:02:00,78.6,73.4,29.95,SE,135,2.4,6.2,84,0.02,,,0.06,WUHU216HW,2013-07-14 13:02:00,
2013-07-14 09:07:00,79.7,73.7,29.95,North,0,0.0,6.2,82,0.02,,,0.06,WUHU216HW,2013-07-14 13:07:00,
2013-07-14 09:12:00,80.7,74.1,29.95,SW,225,1.1,3.8,80,0.02,,,0.06,WUHU216HW,2013-07-14 13:12:00,
2013-07-14 09:17:00,81.6,74.6,29.95,SSW,203,6.0,6.0,79,0.02,,,0.06,WUHU216HW,2013-07-14 13:17:00,
2013-07-14 09:22:00,82.4,74.0,29.95,SW,225,0.0,7.8,76,0.02,,,0.06,WUHU216HW,2013-07-14 13:22:00,
2013-07-14 09:27:00,82.9,74.1,29.95,West,270,0.0,7.8,75,0.00,,,0.06,WUHU216HW,2013-07-14 13:27:00,
2013-07-14 09:33:00,83.4,74.4,29.95,SSE,158,0.0,0.0,74,0.00,,,0.06,WUHU216HW,2013-07-14 13:33:00,
2013-07-14 09:38:00,84.0,74.4,29.95,ENE,68,0.0,0.0,73,0.00,,,0.06,WUHU216HW,2013-07-14 13:38:00,
2013-07-14 09:43:00,84.7,75.1,29.95,SW,225,0.0,6.7,73,0.00,,,0.06,WUHU216HW,2013-07-14 13:43:00,
2013-07-14 09:48:00,85.1,75.0,29.95,SE,135,0.0,6.7,72,0.00,,,0.06,WUHU216HW,2013-07-14 13:48:00,
2013-07-14 09:53:00,85.8,75.4,29.95,South,180,0.0,3.1,71,0.00,,,0.06,WUHU216HW,2013-07-14 13:53:00,
2013-07-14 09:58:00,86.1,74.8,29.95,South,180,0.0,2.6,69,0.00,,,0.06,WUHU216HW,2013-07-14 13:58:00,
2013-07-14 10:03:00,86.9,75.0,29.95,ESE,113,0.0,2.6,68,0.00,,,0.06,WUHU216HW,2013-07-14 14:03:00,
2013-07-14 10:08:00,87.0,74.3,29.96,ESE,113,0.0,0.2,66,0.00,,,0.06,WUHU216HW,2013-07-14 14:08:00,
2013-07-14 10:13:00,87.0,74.3,29.96,ESE,113,0.0,3.3,66,0.00,,,0.06,WUHU216HW,2013-07-14 14:13:00,
2013-07-14 10:18:00,87.4,75.1,29.95,WSW,248,0.0,3.3,67,0.00,,,0.06,WUHU216HW,2013-07-14 14:18:00,
2013-07-14 10:23:00,87.9,74.9,29.96,SE,135,0.0,6.0,66,0.00,,,0.06,WUHU216HW,2013-07-14 14:23:00,
2013-07-14 10:28:00,88.5,74.7,29.96,South,180,0.0,6.0,64,0.00,,,0.06,WUHU216HW,2013-07-14 14:28:00,
2013-07-14 10:33:00,89.0,74.8,29.95,SE,135,0.0,3.5,63,0.00,,,0.06,WUHU216HW,2013-07-14 14:33:00,
2013-07-14 10:38:00,89.7,75.5,29.95,SW,225,0.0,4.6,63,0.00,,,0.06,WUHU216HW,2013-07-14 14:38:00,
2013-07-14 10:43:00,90.3,75.5,29.95,SSW,203,6.4,6.4,62,0.00,,,0.06,WUHU216HW,2013-07-14 14:43:00,
2013-07-14 10:48:00,90.1,74.4,29.95,SE,135,0.0,6.4,60,0.00,,,0.06,WUHU216HW,2013-07-14 14:48:00,
2013-07-14 10:53:00,90.1,74.8,29.95,SW,225,0.0,4.4,61,0.00,,,0.06,WUHU216HW,2013-07-14 14:53:00,
2013-07-14 10:58:00,90.6,74.9,29.95,SE,135,0.0,4.2,60,0.00,,,0.06,WUHU216HW,2013-07-14 14:58:00,
2013-07-14 11:03:00,90.8,74.5,29.95,SSW,203,0.0,5.5,59,0.00,,,0.06,WUHU216HW,2013-07-14 15:03:00,
2013-07-14 11:08:00,90.8,74.5,29.95,ESE,113,0.0,5.5,59,0.00,,,0.06,WUHU216HW,2013-07-14 15:08:00,
2013-07-14 11:13:00,91.0,74.6,29.95,South,180,2.2,2.2,59,0.00,,,0.06,WUHU216HW,2013-07-14 15:13:00,
2013-07-14 11:18:00,91.5,74.6,29.95,East,90,0.0,5.8,58,0.00,,,0.06,WUHU216HW,2013-07-14 15:18:00,
2013-07-14 11:23:00,91.2,73.2,29.95,SSE,158,0.0,6.4,56,0.00,,,0.06,WUHU216HW,2013-07-14 15:23:00,
2013-07-14 11:29:00,91.2,73.7,29.95,NE,45,0.0,6.4,57,0.00,,,0.06,WUHU216HW,2013-07-14 15:29:00,
2013-07-14 11:34:00,91.7,73.7,29.95,East,90,1.7,5.5,56,0.00,,,0.06,WUHU216HW,2013-07-14 15:34:00,
2013-07-14 11:39:00,91.7,73.7,29.96,SSW,203,3.1,5.5,56,0.00,,,0.06,WUHU216HW,2013-07-14 15:39:00,
2013-07-14 11:44:00,91.9,74.4,29.96,SSW,203,0.0,5.3,57,0.00,,,0.06,WUHU216HW,2013-07-14 15:44:00,
2013-07-14 11:49:00,92.1,73.5,29.96,South,180,0.0,5.1,56,0.00,,,0.06,WUHU216HW,2013-07-14 15:49:00,
2013-07-14 11:54:00,92.6,74.0,29.96,WSW,248,0.0,4.4,55,0.00,,,0.06,WUHU216HW,2013-07-14 15:54:00,
2013-07-14 11:59:00,92.8,74.2,29.96,ENE,68,0.0,1.7,55,0.00,,,0.06,WUHU216HW,2013-07-14 15:59:00,
2013-07-14 12:04:00,92.3,73.1,29.96,SSW,203,0.0,4.2,54,0.00,,,0.06,WUHU216HW,2013-07-14 16:04:00,
2013-07-14 12:09:00,91.2,72.6,29.96,West,270,0.0,6.7,55,0.00,,,0.06,WUHU216HW,2013-07-14 16:09:00,
2013-07-14 12:14:00,89.9,72.1,29.96,SW,225,0.0,6.7,56,0.00,,,0.06,WUHU216HW,2013-07-14 16:14:00,
2013-07-14 12:19:00,88.8,72.2,29.95,SSW,203,1.7,5.8,58,0.00,,,0.06,WUHU216HW,2013-07-14 16:19:00,
2013-07-14 12:24:00,88.7,73.1,29.95,SE,135,0.0,5.8,61,0.00,,,0.06,WUHU216HW,2013-07-14 16:24:00,
2013-07-14 12:29:00,89.4,73.2,29.95,ESE,113,0.0,0.0,59,0.00,,,0.06,WUHU216HW,2013-07-14 16:29:00,
2013-07-14 12:34:00,89.9,74.4,29.95,SW,225,4.2,4.2,60,0.00,,,0.06,WUHU216HW,2013-07-14 16:34:00,
2013-07-14 12:39:00,90.8,73.8,29.95,SE,135,0.0,4.2,58,0.00,,,0.06,WUHU216HW,2013-07-14 16:39:00,
2013-07-14 12:44:00,91.7,74.2,29.95,SW,225,0.0,3.8,57,0.00,,,0.06,WUHU216HW,2013-07-14 16:44:00,
2013-07-14 12:49:00,91.0,73.0,29.95,SW,225,0.0,3.8,56,0.00,,,0.06,WUHU216HW,2013-07-14 16:49:00,
2013-07-14 12:54:00,91.0,74.1,29.95,South,180,0.0,2.0,57,0.00,,,0.06,WUHU216HW,2013-07-14 16:54:00,
2013-07-14 12:59:00,91.0,74.1,29.95,ESE,113,0.0,2.0,58,0.00,,,0.06,WUHU216HW,2013-07-14 16:59:00,
2013-07-14 13:04:00,91.7,74.2,29.95,South,180,0.0,6.7,57,0.00,,,0.06,WUHU216HW,2013-07-14 17:04:00,
2013-07-14 13:09:00,91.7,73.2,29.94,ESE,113,0.0,6.7,55,0.00,,,0.06,WUHU216HW,2013-07-14 17:09:00,
2013-07-14 13:14:00,92.1,73.5,29.95,SE,135,0.0,2.4,55,0.00,,,0.06,WUHU216HW,2013-07-14 17:14:00,
2013-07-14 13:19:00,92.8,73.6,29.95,East,90,0.0,2.4,54,0.00,,,0.06,WUHU216HW,2013-07-14 17:19:00,
2013-07-14 13:24:00,93.0,73.2,29.94,ESE,113,0.0,4.0,53,0.00,,,0.06,WUHU216HW,2013-07-14 17:24:00,
2013-07-14 13:30:00,93.0,72.7,29.95,SE,135,4.9,7.3,52,0.00,,,0.06,WUHU216HW,2013-07-14 17:30:00,
2013-07-14 13:35:00,92.8,73.1,29.95,ENE,68,2.6,7.3,53,0.00,,,0.06,WUHU216HW,2013-07-14 17:35:00,
2013-07-14 13:40:00,93.0,73.8,29.94,ENE,68,0.0,2.6,54,0.00,,,0.06,WUHU216HW,2013-07-14 17:40:00,
2013-07-14 13:45:00,92.8,72.5,29.94,SW,225,0.0,7.8,52,0.00,,,0.06,WUHU216HW,2013-07-14 17:45:00,
2013-07-14 13:50:00,92.6,73.6,29.94,ESE,113,0.0,7.8,54,0.00,,,0.06,WUHU216HW,2013-07-14 17:50:00,
2013-07-14 13:55:00,93.0,73.8,29.94,SW,225,1.3,2.2,54,0.00,,,0.06,WUHU216HW,2013-07-14 17:55:00,
2013-07-14 14:00:00,93.3,73.6,29.94,SSW,203,0.0,4.6,53,0.00,,,0.06,WUHU216HW,2013-07-14 18:00:00,
2013-07-14 14:05:00,93.3,73.0,29.93,ENE,68,0.0,4.6,52,0.00,,,0.06,WUHU216HW,2013-07-14 18:05:00,
2013-07-14 14:10:00,93.5,73.2,29.93,SW,225,2.6,4.0,52,0.00,,,0.06,WUHU216HW,2013-07-14 18:10:00,
2013-07-14 14:15:00,93.7,73.4,29.93,SSE,158,0.0,4.2,52,0.00,,,0.06,WUHU216HW,2013-07-14 18:15:00,
2013-07-14 14:20:00,93.9,73.5,29.93,South,180,0.0,4.2,53,0.00,,,0.06,WUHU216HW,2013-07-14 18:20:00,
2013-07-14 14:25:00,94.2,73.9,29.93,SW,225,0.0,4.4,52,0.00,,,0.06,WUHU216HW,2013-07-14 18:25:00,
2013-07-14 14:30:00,94.8,73.9,29.93,WSW,248,0.0,4.4,51,0.00,,,0.06,WUHU216HW,2013-07-14 18:30:00,
2013-07-14 14:35:00,94.8,73.9,29.92,SE,135,0.0,4.4,51,0.00,,,0.06,WUHU216HW,2013-07-14 18:35:00,
2013-07-14 14:40:00,94.8,73.4,29.93,WSW,248,0.0,2.0,50,0.00,,,0.06,WUHU216HW,2013-07-14 18:40:00,
2013-07-14 14:45:00,94.8,73.9,29.92,SSW,203,0.0,5.5,51,0.00,,,0.06,WUHU216HW,2013-07-14 18:45:00,
2013-07-14 14:51:00,94.6,73.7,29.92,West,270,0.0,5.5,51,0.00,,,0.06,WUHU216HW,2013-07-14 18:51:00,
2013-07-14 14:56:00,94.6,73.2,29.92,ENE,68,1.5,4.6,50,0.00,,,0.06,WUHU216HW,2013-07-14 18:56:00,
2013-07-14 15:01:00,94.6,73.2,29.92,SSW,203,0.0,4.6,50,0.00,,,0.06,WUHU216HW,2013-07-14 19:01:00,
2013-07-14 15:06:00,94.4,73.5,29.92,WSW,248,1.1,6.9,51,0.00,,,0.06,WUHU216HW,2013-07-14 19:06:00,
2013-07-14 15:11:00,94.6,73.7,29.91,SW,225,3.1,6.9,51,0.00,,,0.06,WUHU216HW,2013-07-14 19:11:00,
2013-07-14 15:16:00,94.8,73.2,29.91,SSW,203,1.5,3.1,50,0.00,,,0.06,WUHU216HW,2013-07-14 19:16:00,
2013-07-14 15:21:00,94.1,72.6,29.91,West,270,1.5,4.2,50,0.00,,,0.06,WUHU216HW,2013-07-14 19:21:00,
2013-07-14 15:26:00,93.3,72.5,29.91,South,180,0.0,4.2,51,0.00,,,0.06,WUHU216HW,2013-07-14 19:26:00,
2013-07-14 15:31:00,93.5,73.2,29.91,SW,225,0.0,5.8,52,0.00,,,0.06,WUHU216HW,2013-07-14 19:31:00,
2013-07-14 15:36:00,93.7,72.8,29.91,NNW,338,0.0,8.9,51,0.00,,,0.06,WUHU216HW,2013-07-14 19:36:00,
2013-07-14 15:41:00,93.9,73.5,29.91,ENE,68,0.0,8.9,52,0.00,,,0.06,WUHU216HW,2013-07-14 19:41:00,
2013-07-14 15:46:00,94.2,73.9,29.91,SE,135,0.0,3.8,52,0.00,,,0.06,WUHU216HW,2013-07-14 19:46:00,
2013-07-14 15:51:00,94.4,73.5,29.90,SSW,203,0.0,4.6,51,0.00,,,0.06,WUHU216HW,2013-07-14 19:51:00,
2013-07-14 15:56:00,94.1,73.2,29.91,NNW,338,0.0,4.6,51,0.00,,,0.06,WUHU216HW,2013-07-14 19:56:00,
2013-07-14 16:02:00,93.3,73.0,29.91,SW,225,0.0,1.1,52,0.00,,,0.06,WUHU216HW,2013-07-14 20:02:00,
2013-07-14 16:07:00,93.3,73.6,29.91,SW,225,6.4,6.4,53,0.00,,,0.06,WUHU216HW,2013-07-14 20:07:00,
2013-07-14 16:12:00,93.9,73.5,29.91,SW,225,0.0,6.4,52,0.00,,,0.06,WUHU216HW,2013-07-14 20:12:00,
2013-07-14 16:17:00,94.1,73.2,29.91,SSW,203,0.0,2.0,51,0.00,,,0.06,WUHU216HW,2013-07-14 20:17:00,
2013-07-14 16:22:00,93.7,72.8,29.91,South,180,0.0,0.0,51,0.00,,,0.06,WUHU216HW,2013-07-14 20:22:00,
2013-07-14 16:27:00,93.3,73.6,29.90,SSW,203,0.0,0.0,53,0.00,,,0.06,WUHU216HW,2013-07-14 20:27:00,
2013-07-14 16:32:00,93.9,73.5,29.90,South,180,0.0,4.4,52,0.00,,,0.06,WUHU216HW,2013-07-14 20:32:00,
2013-07-14 16:37:00,94.1,73.2,29.90,SSW,203,0.0,4.4,51,0.00,,,0.06,WUHU216HW,2013-07-14 20:37:00,
2013-07-14 16:42:00,94.6,73.2,29.90,East,90,0.0,3.5,50,0.00,,,0.06,WUHU216HW,2013-07-14 20:42:00,
2013-07-14 16:47:00,95.1,74.2,29.90,SW,225,0.0,2.0,51,0.00,,,0.06,WUHU216HW,2013-07-14 20:47:00,
2013-07-14 16:52:00,95.5,74.6,29.90,SW,225,0.8,2.0,51,0.00,,,0.06,WUHU216HW,2013-07-14 20:52:00,
2013-07-14 16:57:00,95.9,74.3,29.90,SW,225,0.0,0.8,50,0.00,,,0.06,WUHU216HW,2013-07-14 20:57:00,
2013-07-14 17:03:00,96.0,73.8,29.90,SSW,203,0.0,0.0,49,0.00,,,0.06,WUHU216HW,2013-07-14 21:03:00,
2013-07-14 17:08:00,96.0,73.2,29.90,WSW,248,0.0,4.0,48,0.00,,,0.06,WUHU216HW,2013-07-14 21:08:00,
2013-07-14 17:13:00,95.9,73.0,29.90,SSW,203,0.0,7.3,48,0.00,,,0.06,WUHU216HW,2013-07-14 21:13:00,
2013-07-14 17:18:00,95.7,72.8,29.90,South,180,0.0,9.6,48,0.00,,,0.06,WUHU216HW,2013-07-14 21:18:00,
2013-07-14 17:23:00,95.7,73.5,29.90,South,180,3.1,9.6,49,0.00,,,0.06,WUHU216HW,2013-07-14 21:23:00,
2013-07-14 17:28:00,95.7,73.5,29.90,SSW,203,0.0,8.9,49,0.00,,,0.06,WUHU216HW,2013-07-14 21:28:00,
2013-07-14 17:33:00,95.5,72.7,29.90,SW,225,1.5,8.9,48,0.00,,,0.06,WUHU216HW,2013-07-14 21:33:00,
2013-07-14 17:38:00,95.5,72.7,29.90,SW,225,0.0,1.5,48,0.00,,,0.06,WUHU216HW,2013-07-14 21:38:00,
2013-07-14 17:43:00,95.5,73.4,29.90,WSW,248,0.0,1.1,49,0.00,,,0.06,WUHU216HW,2013-07-14 21:43:00,
2013-07-14 17:48:00,95.3,73.2,29.90,SW,225,0.0,1.3,49,0.00,,,0.06,WUHU216HW,2013-07-14 21:48:00,
2013-07-14 17:53:00,95.1,73.0,29.90,ESE,113,0.0,2.4,49,0.00,,,0.06,WUHU216HW,2013-07-14 21:53:00,
2013-07-14 17:58:00,95.1,73.0,29.90,SSW,203,0.0,2.4,49,0.00,,,0.06,WUHU216HW,2013-07-14 21:58:00,
2013-07-14 18:04:00,95.0,72.9,29.90,SE,135,0.0,0.0,49,0.00,,,0.06,WUHU216HW,2013-07-14 22:04:00,
2013-07-14 18:09:00,94.8,72.7,29.89,South,180,0.0,3.1,49,0.00,,,0.06,WUHU216HW,2013-07-14 22:09:00,
2013-07-14 18:14:00,94.8,72.7,29.89,SW,225,0.0,3.1,49,0.00,,,0.06,WUHU216HW,2013-07-14 22:14:00,
2013-07-14 18:19:00,94.8,73.4,29.90,WSW,248,0.0,1.5,50,0.00,,,0.06,WUHU216HW,2013-07-14 22:19:00,
2013-07-14 18:24:00,94.8,72.7,29.90,SE,135,0.0,0.0,49,0.00,,,0.06,WUHU216HW,2013-07-14 22:24:00,
2013-07-14 18:29:00,94.6,71.8,29.89,SSW,203,0.8,0.8,48,0.00,,,0.06,WUHU216HW,2013-07-14 22:29:00,
2013-07-14 18:34:00,94.2,71.5,29.89,SW,225,0.0,0.8,48,0.00,,,0.06,WUHU216HW,2013-07-14 22:34:00,
2013-07-14 18:39:00,93.9,71.1,29.89,East,90,0.0,0.0,49,0.00,,,0.06,WUHU216HW,2013-07-14 22:39:00,
2013-07-14 18:44:00,93.7,71.6,29.89,South,180,0.0,0.0,49,0.00,,,0.06,WUHU216HW,2013-07-14 22:44:00,
2013-07-14 18:49:00,93.3,71.9,29.89,SW,225,0.0,0.0,50,0.00,,,0.06,WUHU216HW,2013-07-14 22:49:00,
2013-07-14 18:54:00,92.8,71.9,29.89,SW,225,0.0,0.0,51,0.00,,,0.06,WUHU216HW,2013-07-14 22:54:00,
2013-07-14 18:59:00,92.1,71.7,29.89,SW,225,0.0,2.4,52,0.00,,,0.06,WUHU216HW,2013-07-14 22:59:00,
2013-07-14 19:04:00,91.5,71.4,29.89,SSW,203,5.1,5.1,52,0.00,,,0.06,WUHU216HW,2013-07-14 23:04:00,
2013-07-14 19:09:00,90.8,71.2,29.89,North,0,0.0,5.1,53,0.00,,,0.06,WUHU216HW,2013-07-14 23:09:00,
2013-07-14 19:14:00,90.3,71.3,29.89,SW,225,0.0,1.7,54,0.00,,,0.06,WUHU216HW,2013-07-14 23:14:00,
2013-07-14 19:19:00,89.7,71.4,29.89,WSW,248,3.1,3.1,54,0.00,,,0.06,WUHU216HW,2013-07-14 23:19:00,
2013-07-14 19:25:00,89.2,70.9,29.89,WSW,248,0.0,3.1,55,0.00,,,0.06,WUHU216HW,2013-07-14 23:25:00,
2013-07-14 19:30:00,88.7,70.9,29.89,SW,225,0.0,2.4,56,0.00,,,0.06,WUHU216HW,2013-07-14 23:30:00,
2013-07-14 19:35:00,88.3,71.1,29.89,South,180,0.0,0.0,57,0.00,,,0.06,WUHU216HW,2013-07-14 23:35:00,
2013-07-14 19:40:00,87.9,70.3,29.89,SSW,203,0.0,0.0,56,0.00,,,0.06,WUHU216HW,2013-07-14 23:40:00,
2013-07-14 19:45:00,87.6,70.5,29.89,SSW,203,0.0,0.0,57,0.00,,,0.06,WUHU216HW,2013-07-14 23:45:00,
2013-07-14 19:50:00,87.6,70.5,29.89,SSW,203,0.0,0.0,57,0.00,,,0.06,WUHU216HW,2013-07-14 23:50:00,
2013-07-14 19:55:00,87.2,70.1,29.90,SSW,203,0.0,0.0,57,0.00,,,0.06,WUHU216HW,2013-07-14 23:55:00,
2013-07-14 20:00:00,87.0,70.5,29.89,SW,225,0.0,0.0,58,0.00,,,0.06,WUHU216HW,2013-07-15 00:00:00,
2013-07-14 20:05:00,86.7,70.1,29.89,SW,225,0.0,0.0,58,0.00,,,0.06,WUHU216HW,2013-07-15 00:05:00,
2013-07-14 20:10:00,86.5,70.5,29.89,SW,225,0.0,0.0,59,0.00,,,0.06,WUHU216HW,2013-07-15 00:10:00,
2013-07-14 20:15:00,86.3,70.8,29.89,SW,225,0.0,0.0,60,0.00,,,0.06,WUHU216HW,2013-07-15 00:15:00,
2013-07-14 20:20:00,85.8,70.3,29.89,SSE,158,0.0,0.0,60,0.00,,,0.06,WUHU216HW,2013-07-15 00:20:00,
2013-07-14 20:25:00,85.6,70.6,29.90,SSE,158,0.0,0.0,61,0.00,,,0.06,WUHU216HW,2013-07-15 00:25:00,
2013-07-14 20:30:00,85.2,70.7,29.90,SSE,158,0.0,0.0,62,0.00,,,0.06,WUHU216HW,2013-07-15 00:30:00,
2013-07-14 20:36:00,85.1,70.6,29.89,SSE,158,0.0,0.0,62,0.00,,,0.06,WUHU216HW,2013-07-15 00:36:00,
2013-07-14 20:41:00,84.7,70.7,29.89,SSE,158,0.0,0.0,63,0.00,,,0.06,WUHU216HW,2013-07-15 00:41:00,
2013-07-14 20:46:00,84.3,70.4,29.89,SE,135,0.0,0.0,63,0.00,,,0.06,WUHU216HW,2013-07-15 00:46:00,
2013-07-14 20:51:00,84.0,70.5,29.89,SE,135,0.0,0.0,64,0.00,,,0.06,WUHU216HW,2013-07-15 00:51:00,
2013-07-14 20:56:00,83.4,70.4,29.90,SE,135,0.0,0.0,65,0.00,,,0.06,WUHU216HW,2013-07-15 00:56:00,
2013-07-14 21:01:00,82.9,70.3,29.90,SE,135,0.0,0.0,66,0.00,,,0.06,WUHU216HW,2013-07-15 01:01:00,
2013-07-14 21:06:00,82.2,70.0,29.90,SE,135,0.0,0.0,67,0.00,,,0.06,WUHU216HW,2013-07-15 01:06:00,
2013-07-14 21:11:00,81.8,70.2,29.90,SE,135,0.0,0.0,68,0.00,,,0.06,WUHU216HW,2013-07-15 01:11:00,
2013-07-14 21:16:00,81.3,70.1,29.90,SE,135,0.0,0.0,69,0.00,,,0.06,WUHU216HW,2013-07-15 01:16:00,
2013-07-14 21:21:00,80.9,69.8,29.90,SE,135,0.0,0.0,69,0.00,,,0.06,WUHU216HW,2013-07-15 01:21:00,
2013-07-14 21:26:00,80.7,69.6,29.90,SE,135,0.0,0.0,69,0.00,,,0.06,WUHU216HW,2013-07-15 01:26:00,
2013-07-14 21:32:00,80.4,69.8,29.90,SE,135,0.0,0.0,70,0.00,,,0.06,WUHU216HW,2013-07-15 01:32:00,
2013-07-14 21:37:00,80.2,69.6,29.90,SE,135,0.0,0.0,70,0.00,,,0.06,WUHU216HW,2013-07-15 01:37:00,
2013-07-14 21:42:00,80.0,69.8,29.90,SE,135,0.0,0.0,71,0.00,,,0.06,WUHU216HW,2013-07-15 01:42:00,
2013-07-14 21:47:00,79.7,69.4,29.91,SE,135,0.0,0.0,71,0.00,,,0.06,WUHU216HW,2013-07-15 01:47:00,
2013-07-14 21:52:00,79.5,69.2,29.91,SE,135,0.0,0.0,71,0.00,,,0.06,WUHU216HW,2013-07-15 01:52:00,
2013-07-14 21:57:00,79.5,69.2,29.91,SE,135,0.0,0.0,71,0.00,,,0.06,WUHU216HW,2013-07-15 01:57:00,
2013-07-14 22:02:00,79.5,69.2,29.91,SE,135,0.0,0.0,71,0.00,,,0.06,WUHU216HW,2013-07-15 02:02:00,
2013-07-14 22:07:00,79.3,69.5,29.91,SE,135,0.0,0.0,71,0.00,,,0.06,WUHU216HW,2013-07-15 02:07:00,
2013-07-14 22:12:00,79.3,69.5,29.90,SE,135,0.0,0.0,72,0.00,,,0.06,WUHU216HW,2013-07-15 02:12:00,
2013-07-14 22:17:00,79.1,68.9,29.91,SE,135,0.0,0.0,71,0.00,,,0.06,WUHU216HW,2013-07-15 02:17:00,
2013-07-14 22:22:00,78.9,69.1,29.91,East,90,0.0,0.0,72,0.00,,,0.06,WUHU216HW,2013-07-15 02:22:00,
2013-07-14 22:27:00,78.9,68.7,29.91,East,90,0.0,0.0,71,0.00,,,0.06,WUHU216HW,2013-07-15 02:27:00,
2013-07-14 22:32:00,78.8,68.5,29.91,East,90,0.0,0.0,71,0.00,,,0.06,WUHU216HW,2013-07-15 02:32:00,
2013-07-14 22:38:00,78.6,68.7,29.91,East,90,0.0,0.0,72,0.00,,,0.06,WUHU216HW,2013-07-15 02:38:00,
2013-07-14 22:43:00,78.6,69.1,29.91,East,90,0.0,0.0,73,0.00,,,0.06,WUHU216HW,2013-07-15 02:43:00,
2013-07-14 22:48:00,78.4,69.0,29.91,East,90,0.0,0.0,73,0.00,,,0.06,WUHU216HW,2013-07-15 02:48:00,
2013-07-14 22:53:00,78.2,68.8,29.91,East,90,0.0,0.0,73,0.00,,,0.06,WUHU216HW,2013-07-15 02:53:00,
2013-07-14 22:58:00,78.2,69.4,29.90,East,90,0.0,0.0,74,0.00,,,0.06,WUHU216HW,2013-07-15 02:58:00,
2013-07-14 23:03:00,78.4,69.4,29.90,ENE,68,0.0,0.0,74,0.00,,,0.06,WUHU216HW,2013-07-15 03:03:00,
2013-07-14 23:08:00,78.4,69.4,29.91,ENE,68,0.0,0.0,74,0.00,,,0.06,WUHU216HW,2013-07-15 03:08:00,
2013-07-14 23:13:00,78.4,69.8,29.90,ENE,68,0.0,0.0,75,0.00,,,0.06,WUHU216HW,2013-07-15 03:13:00,
2013-07-14 23:18:00,78.4,69.8,29.90,ENE,68,0.0,0.0,75,0.00,,,0.06,WUHU216HW,2013-07-15 03:18:00,
2013-07-14 23:23:00,78.2,69.6,29.90,ENE,68,0.0,0.0,75,0.00,,,0.06,WUHU216HW,2013-07-15 03:23:00,
2013-07-14 23:28:00,78.0,69.4,29.90,ENE,68,0.0,0.0,75,0.00,,,0.06,WUHU216HW,2013-07-15 03:28:00,
2013-07-14 23:33:00,77.9,69.2,29.91,ENE,68,0.0,0.0,75,0.00,,,0.06,WUHU216HW,2013-07-15 03:33:00,
2013-07-14 23:38:00,77.7,69.1,29.91,ENE,68,0.0,0.0,75,0.00,,,0.06,WUHU216HW,2013-07-15 03:38:00,
2013-07-14 23:43:00,77.5,68.9,29.91,ENE,68,0.0,0.0,75,0.00,,,0.06,WUHU216HW,2013-07-15 03:43:00,
2013-07-14 23:48:00,77.1,68.9,29.91,ENE,68,0.0,0.0,76,0.00,,,0.06,WUHU216HW,2013-07-15 03:48:00,
2013-07-14 23:53:00,77.1,69.3,29.90,ENE,68,0.0,0.0,77,0.00,,,0.06,WUHU216HW,2013-07-15 03:53:00,
2013-07-14 23:58:00,76.8,69.0,29.90,ENE,68,0.0,0.0,77,0.00,,,0.06,WUHU216HW,2013-07-15 03:58:00,